TimeAKDT,TemperatureF,Dew PointF,Humidity,Sea Level PressureIn,VisibilityMPH,Wind Direction,Wind SpeedMPH,Gust SpeedMPH,PrecipitationIn,Events,Conditions,WindDirDegrees,DateUTC
12:53 AM,15.1,10.0,80,29.15,10.0,Calm,Calm,-,N/A,,Mostly Cloudy,0,2012-03-30 08:53:00
1:53 AM,14.0,9.0,80,29.15,10.0,Calm,Calm,-,N/A,,Mostly Cloudy,0,2012-03-30 09:53:00
2:53 AM,14.0,9.0,80,29.16,10.0,Calm,Calm,-,N/A,,Mostly Cloudy,0,2012-03-30 10:53:00
3:53 AM,12.0,8.1,84,29.16,10.0,Calm,Calm,-,N/A,,Mostly Cloudy,0,2012-03-30 11:53:00
4:53 AM,12.9,8.1,81,29.17,10.0,SSW,3.5,-,N/A,,Mostly Cloudy,200,2012-03-30 12:53:00
5:53 AM,10.9,7.0,84,29.18,10.0,Calm,Calm,-,N/A,,Mostly Cloudy,0,2012-03-30 13:53:00
6:53 AM,14.0,10.0,84,29.19,10.0,Calm,Calm,-,N/A,,Mostly Cloudy,0,2012-03-30 14:53:00
7:53 AM,16.0,10.9,81,29.19,10.0,Calm,Calm,-,N/A,,Mostly Cloudy,0,2012-03-30 15:53:00
8:53 AM,17.1,10.9,77,29.21,10.0,Calm,Calm,-,N/A,,Mostly Cloudy,0,2012-03-30 16:53:00
9:53 AM,21.0,12.9,71,29.22,10.0,Calm,Calm,-,N/A,,Mostly Cloudy,0,2012-03-30 17:53:00
10:53 AM,23.0,12.9,65,29.23,10.0,SSE,4.6,-,N/A,,Scattered Clouds,150,2012-03-30 18:53:00
11:53 AM,26.1,14.0,60,29.23,10.0,Calm,Calm,-,N/A,,Mostly Cloudy,0,2012-03-30 19:53:00
12:53 PM,28.0,14.0,56,29.24,10.0,SSW,3.5,-,N/A,,Mostly Cloudy,210,2012-03-30 20:53:00
1:53 PM,28.9,16.0,58,29.25,10.0,SSW,5.8,-,N/A,,Mostly Cloudy,200,2012-03-30 21:53:00
2:53 PM,30.0,17.1,59,29.25,10.0,SSW,8.1,-,N/A,,Mostly Cloudy,200,2012-03-30 22:53:00
3:53 PM,32.0,17.1,54,29.26,10.0,South,8.1,-,N/A,,Mostly Cloudy,190,2012-03-30 23:53:00
4:53 PM,33.1,17.1,52,29.26,10.0,SSW,4.6,-,N/A,,Mostly Cloudy,210,2012-03-31 00:53:00
5:53 PM,33.1,16.0,50,29.27,10.0,SSW,5.8,-,N/A,,Mostly Cloudy,200,2012-03-31 01:53:00
6:53 PM,30.0,15.1,54,29.30,10.0,SSW,6.9,-,N/A,,Mostly Cloudy,200,2012-03-31 02:53:00
7:53 PM,28.9,16.0,58,29.31,10.0,SSW,6.9,-,N/A,,Mostly Cloudy,200,2012-03-31 03:53:00
8:53 PM,27.0,14.0,58,29.34,10.0,Variable,3.5,-,N/A,,Mostly Cloudy,0,2012-03-31 04:53:00
9:53 PM,25.0,12.9,60,29.36,10.0,SSW,5.8,-,N/A,,Mostly Cloudy,200,2012-03-31 05:53:00
10:53 PM,24.1,14.0,65,29.39,10.0,South,5.8,-,N/A,Snow,Light Snow,190,2012-03-31 06:53:00
11:53 PM,23.0,14.0,68,29.41,9.0,South,3.5,-,N/A,,Mostly Cloudy,190,2012-03-31 07:53:00